Regional Weather Roundup
Issued by NWS

Home | Current Version | Previous Version | Text Only | Print | Product List | Glossary Off
Versions: 1 2 3 4 5 6 7 8 9 10 11 12 13 14 15 16 17 18 19 20 21 22 23 24 25 26 27

000
ASUS45 KBOU 302207
RWRCO

WEATHER ROUNDUP FOR COLORADO
NATIONAL WEATHER SERVICE DENVER/BOULDER CO
400 PM MDT THU OCT 30 2014

NOTE: "FAIR" INDICATES FEW OR NO CLOUDS BELOW 12000 FEET WITH NO
SIGNIFICANT WEATHER AND/OR OBSTRUCTIONS TO VISIBILITY.

COZ001>005-013-030-031-302300-
...NORTHWEST COLORADO...

CITY           SKY/WX    TMP DP  RH WIND       PRES   REMARKS
CRAIG          SUNNY     62  25  24 CALM      30.32F
HAYDEN         SUNNY     61  25  25 CALM      30.33F
MEEKER         SUNNY     65  25  22 CALM      30.31S
MOUNT WERNER   NOT AVBL
STEAMBOAT SPGS SUNNY     59  26  28 SW3       30.34F
WALDEN         SUNNY     54  23  30 N5        30.38S
$$

COZ006>008-011-302300-
...WEST CENTRAL VALLEYS...

CITY           SKY/WX    TMP DP  RH WIND       PRES   REMARKS
GRAND JUNCTION SUNNY     67  18  15 CALM      30.23F
MONTROSE       SUNNY     66  19  16 CALM      30.29F
EAGLE          SUNNY     64  21  19 CALM      30.33F
RIFLE          SUNNY     68  21  16 CALM      30.26F
DELTA          SUNNY     71  18  13 CALM      30.26F
NUCLA          SUNNY     68  19  15 CALM      30.30F
$$

COZ017>023-064>068-302300-
...SOUTHWEST COLORADO...

CITY           SKY/WX    TMP DP  RH WIND       PRES   REMARKS
DURANGO        SUNNY     66  21  18 W9        30.31F
CORTEZ         SUNNY     67  21  17 SW5       30.28F
PAGOSA SPRINGS SUNNY     67  10  11 SW7       30.35S
TELLURIDE      SUNNY     62  17  17 W10G17    30.43F
WOLF CREEK PAS SUNNY     46  16  29 SW20G25   30.57S
$$

COZ009-010-012-014-032>034-037-058>063-302300-
...CENTRAL COLORADO...

CITY           SKY/WX    TMP DP  RH WIND       PRES   REMARKS
ASPEN          SUNNY     61  20  20 N7        30.36S
BUENA VISTA    SUNNY     62  16  16 S5        30.33F
COPPER MTN     SUNNY     45  18  33 W17G24    30.56S
BERTHOUD PASS  FAIR      32  30  93 NW22      30.57R WCI  19
COTTONWOOD PAS SUNNY     59  10  14 S8        30.44S
GUNNISON       SUNNY     63  19  19 W8        30.37F
KREMMLING      SUNNY     61  19  20 CALM      30.36F
LEADVILLE      SUNNY     53  14  21 W12       30.44S
SALIDA         SUNNY     65  18  16 SE8       30.39F
SUNLIGHT       SUNNY     50  21  32 CALM      30.54S
WILKERSON PASS NOT AVBL
$$

COZ069>075-302300-
...SAN LUIS VALLEY/SANGRE DE CRISTO MOUNTAINS...

CITY           SKY/WX    TMP DP  RH WIND       PRES   REMARKS
ALAMOSA        SUNNY     64  16  15 VRB5      30.33F
LA VETA PASS   SUNNY     46  21  36 NE5       30.48S
SAGUACHE       SUNNY     63  21  20 S10       30.34F
$$

COZ035-036-038>040-302300-
...NORTHERN COLORADO FRONT RANGE...

CITY           SKY/WX    TMP DP  RH WIND       PRES   REMARKS
DENVER INTL AP MOSUNNY   60  26  27 E6        30.32S
DMNS CITY PARK   N/A     61  26  25 E8        30.32R
AURORA         MOSUNNY   61  27  27 E8        30.33S
FRONT RANGE AP MOSUNNY   61  28  29 NE8       30.34R
ERIE MUNI ARPT SUNNY     62  24  24 NE7       30.32R
BOULDER MUN AP SUNNY     61  28  29 NE6       30.32R
CENTENNIAL     MOSUNNY   60  26  27 E8        30.32R
BROOMFIELD     MOSUNNY   61  27  27 E3        30.33S
FORT COLLINS   SUNNY     61  28  29 SE6       30.33S
LONGMONT       SUNNY     65  26  23 SE6       30.33S
$$

COZ041-046-047-076>085-087-088-302300-
...PIKES PEAK/PALMER DIVIDE AND SOUTHERN FOOTHILLS...

CITY           SKY/WX    TMP DP  RH WIND       PRES   REMARKS
COLO. SPRINGS  MOSUNNY   59  22  24 S14       30.35R
A. F. ACADEMY  SUNNY     58  22  24 SE8       30.35R
ELLICOTT       SUNNY     58  22  24 SE6G16    30.34S
FALCON         SUNNY     58  22  24 SE5       30.37S
FORT CARSON    SUNNY     59  24  25 SE12      30.32S
LIMON          SUNNY     60  24  25 NW3       30.34R
MONUMENT HILL  SUNNY     55  25  30 SE7       30.36R
TRINIDAD       SUNNY     62  23  22 E7        30.32S
$$

COZ042>045-048>051-090-091-302300-
...NORTHEAST COLORADO...

CITY           SKY/WX    TMP DP  RH WIND       PRES   REMARKS
GREELEY ARPT   SUNNY     61  28  29 N3        30.32S
AKRON          SUNNY     61  26  26 NW12      30.32S
BURLINGTON     SUNNY     64  24  21 N14       30.31R
WRAY           SUNNY     66  25  20 NW13G18   30.29S
STERLING       NOT AVBL
HOLYOKE        SUNNY     64  30  27 N10G18    30.30R
FORT MORGAN    SUNNY     63  23  21 NE6       30.32S
$$

COZ086-089-092>099-302300-
...SOUTHEAST COLORADO...

CITY           SKY/WX    TMP DP  RH WIND       PRES   REMARKS
PUEBLO         SUNNY     66  23  19 SE10      30.28F
LA JUNTA       SUNNY     67  25  20 NE8       30.29S
LAMAR          SUNNY     69  26  20 NE6       30.27S
SPRINGFIELD      N/A     65  25  22 N12       30.29S
$$



USA.gov is the U.S. government's official web portal to all federal, state and local government web resources and services.